Location: Poughquag
(41.6090°N, 73.6820°W)
Time: 01:21:00
(UTC-04:00)

Transit 2A - Pass Details

Date: 31 May 2020
Orbit: 592 x 967 km, 66.7° (Epoch: 06 July)

Event Time Altitude Azimuth Distance (km) Brightness Sun altitude
Rises 14:39:53 0° 229° (SW) 3,019 9.5 60.2°
Reaches altitude 10° 14:42:12 10° 237° (WSW) 2,161 9.0 59.8°
Maximum altitude 14:46:52 42° 308° (NW) 1,074 7.6 59.1°
Drops below altitude 10° 14:52:05 10° 19° (NNE) 2,412 8.5 58.2°
Sets 14:54:48 0° 26° (NNE) 3,412 9.1 57.8°
